FW0979 Weather Reports


Display with metric or nautical units.
time (UTC)temp
F
wind
direction
speed
MPH
gust
MPH
rain 1hr
in
rain 24hr
in
rain mn
in
humidity
%
barometer
mb
20260505034504 72 261 6.0 12.0 0.00 0.00 0.00 27 1003.4
20260505033010 72 262 7.0 10.0 0.00 0.00 0.00 27 1003.4
20260505031503 73 269 7.0 11.0 0.00 0.00 0.00 26 1003.2
20260505030008 73 277 7.0 12.0 0.00 0.00 0.00 25 1003.3
20260505024502 74 285 9.0 15.0 0.00 0.00 0.00 24 1003.2
20260505023001 75 272 10.0 16.0 0.00 0.00 0.00 23 1003.0
20260505021501 75 288 10.0 17.0 0.00 0.00 0.00 23 1002.9
20260505020003 76 360 7.0 12.0 0.00 0.00 0.00 22 1002.9
20260505014608 77 265 9.0 16.0 0.00 0.00 0.00 21 1002.8
20260505013103 77 280 10.0 17.0 0.00 0.00 0.00 20 1002.6
20260505011613 78 264 8.0 12.0 0.00 0.00 0.00 19 1002.6
20260505010106 79 274 11.0 18.0 0.00 0.00 0.00 18 1002.8
20260505004600 79 251 11.0 22.0 0.00 0.00 0.00 17 1002.8
20260505003054 80 271 9.0 18.0 0.00 0.00 0.00 17 1002.9
20260505001555 81 264 14.0 23.0 0.00 0.00 0.00 15 1002.9
20260505000101 82 269 15.0 28.0 0.00 0.00 0.00 14 1003.0
20260504234603 83 271 14.0 24.0 0.00 0.00 0.00 14 1003.0
20260504233050 83 265 11.0 19.0 0.00 0.00 0.00 15 1003.1
20260504231551 83 259 11.0 22.0 0.00 0.00 0.00 15 1003.2
20260504230052 83 255 10.0 20.0 0.00 0.00 0.00 15 1003.1
20260504224550 83 250 10.0 18.0 0.00 0.00 0.00 14 1003.2
20260504223045 83 271 13.0 21.0 0.00 0.00 0.00 14 1003.5
20260504221546 83 247 12.0 20.0 0.00 0.00 0.00 14 1003.5
20260504220048 84 266 9.0 17.0 0.00 0.00 0.00 15 1003.7
20260504214538 84 278 13.0 23.0 0.00 0.00 0.00 16 1003.9
20260504213050 83 264 13.0 24.0 0.00 0.00 0.00 17 1004.3
20260504211539 82 240 11.0 20.0 0.00 0.00 0.00 18 1004.4
20260504210030 82 283 10.0 22.0 0.00 0.00 0.00 20 1004.8
20260504204537 81 264 11.0 19.0 0.00 0.00 0.00 19 1005.0
20260504203025 81 205 10.0 19.0 0.00 0.00 0.00 20 1005.1
20260504201523 81 233 12.0 19.0 0.00 0.00 0.00 22 1005.1
20260504200021 80 275 11.0 24.0 0.00 0.00 0.00 20 1005.6
20260504194518 79 274 13.0 21.0 0.00 0.00 0.00 23 1006.0
20260504193015 80 257 12.0 22.0 0.00 0.00 0.00 26 1006.0
20260504191513 79 255 11.0 21.0 0.00 0.00 0.00 27 1006.4
20260504190013 79 244 11.0 19.0 0.00 0.00 0.00 27 1006.5
20260504184510 79 247 10.0 19.0 0.00 0.00 0.00 28 1006.5
20260504183010 80 249 8.0 15.0 0.00 0.00 0.00 27 1006.5
20260504181511 81 253 9.0 16.0 0.00 0.00 0.00 31 1006.7
20260504180006 80 257 8.0 15.0 0.00 0.00 0.00 30 1006.9
20260504174503 81 281 9.0 16.0 0.00 0.00 0.00 32 1007.1
20260504173000 81 283 7.0 14.0 0.00 0.00 0.00 33 1007.3
20260504171600 80 297 8.0 15.0 0.00 0.00 0.00 34 1007.5
20260504081535 59 230 4.0 10.0 0.00 0.00 0.00 70 1009.2
20260504050006 63 189 6.0 11.0 0.00 0.00 0.00 58 1011.2
20260504044506 63 195 6.0 12.0 0.00 0.00 0.00 57 1011.2
20260504043006 64 182 5.0 9.0 0.00 0.00 0.00 55 1011.3
20260504041505 64 180 6.0 12.0 0.00 0.00 0.00 54 1011.4
20260504040013 65 191 5.0 11.0 0.00 0.00 0.00 53 1011.5